Location: Palomar Mountain Lodge
(33.3110°N, 116.8495°W)
Time: 01:46:59
(UTC-08:00)

Okean 1 - Pass Details

Date: 13 December 2025
Orbit: 465 x 483 km, 82.5° (Epoch: 21 January)

Event Time Altitude Azimuth Distance (km) Brightness Sun altitude
Rises 17:17:46 0° 164° (SSE) 2,525 6.8 -7.8°
Reaches altitude 10° 17:20:01 10° 153° (SSE) 1,646 5.7 -8.2°
Maximum altitude 17:23:11 29° 92° (E) 893 3.9 -8.8°
Drops below altitude 10° 17:26:20 10° 30° (NNE) 1,644 5.3 -9.4°
Enters shadow 17:27:16 - 24° (NNE) 1,992 5.7 -9.6°
